Regional Weather Roundup
Issued by NWS Charleston, SC

Current Version | Previous Version | Text Only | Print | Product List | Glossary Off
Versions: 1 2 3 4 5 6 7 8 9 10 11 12 13 14 15 16 17 18 19 20 21 22 23 24 25 26 27 28 29 30 31 32 33 34 35 36 37 38 39 40 41 42 43 44 45 46 47 48 49 50

000
ASUS42 KCHS 020125
RWRCHS

REGIONAL WEATHER ROUNDUP
NATIONAL WEATHER SERVICE CHARLESTON SC
900 PM EDT MON SEP 01 2014

NOTE: "FAIR" INDICATES FEW OR NO CLOUDS BELOW 12,000 FEET WITH NO
SIGNIFICANT WEATHER AND/OR OBSTRUCTIONS TO VISIBILITY.

NOT ALL STATIONS ARE QUALITY CONTROLLED BY THE NATIONAL
WEATHER SERVICE. USE DATA WITH CAUTION...ESPECIALLY
DEWPOINT OBSERVATIONS.

SCZ027-030-031-034>040-042>050-020200-
...SOUTH CAROLINA...

CITY           SKY/WX    TMP DP  RH WIND       PRES   REMARKS
N CHARLESTON   CLOUDY    83  76  79 S5        30.09R HX  91
WATERFRONT PRK   N/A     82 N/A N/A S7          N/A
FORT JOHNSON   NOT AVBL
MOUNT PLEASANT FAIR      82  79  89 CALM      30.09R HX  93
JOHNS ISLAND   CLEAR     82  81  94 CALM      30.09R HX  95
PINOPOLIS        N/A     84  75  74 MISG      29.99F HX  92
MONCKS CORNER    N/A     82  79  89 CALM      30.08S HX  93
SUMMERVILLE    FAIR      79  79 100 CALM      30.09R
BEAUFORT MCAS  PTCLDY    83  76  79 SW3       30.08R HX  91
BEAUFORT ARPT  FAIR      81  77  89 CALM      30.08R
HILTON HEAD IS PTCLDY    82  79  89 SE3       30.10R HX  93
GEORGETOWN     NOT AVBL
WALTERBORO     MOCLDY    79 N/A N/A SE5       30.09R
ORANGEBURG     MOCLDY    81  72  74 CALM      30.08R
BARNWELL       FAIR      77  72  83 CALM      30.08R
AIKEN          FAIR      79  73  83 CALM      30.12R
MANNING        FAIR      81  73  78 S3        30.07S
KINGSTREE      NOT AVBL
COLUMBIA       MOCLDY    78  74  87 S5        30.06R
SUMTER         LGT RAIN  80  78  93 S7        30.05S
FLORENCE       LGT RAIN  82  72  71 S8        30.06R
MYRTLE BEACH   CLEAR     82  73  74 S7        30.07S
N MYRTLE BEACH MOCLDY    83  75  77 S10       30.07R HX  90

$$

GAZ063-065-086>088-099>101-113>116-118-119-134-136>141-150-020200-
...GEORGIA...

CITY           SKY/WX    TMP DP  RH WIND       PRES   REMARKS
SAVANNAH ARPT  MOCLDY    84  74  71 SE7       30.08R HX  91
HUNTER AAF     CLOUDY    83  77  81 SE3       30.06R HX  92
FORT STEWART   MOCLDY    82  75  78 CALM      30.07R
STATESBORO     NOT AVBL
SYLVANIA       PTCLDY    82  78  85 CALM      30.09R HX  91
CLAXTON        NOT AVBL
THOMSON        CLOUDY    77  77 100 CALM      30.14R
AUGUSTA-BUSH   LGT RAIN  80  71  74 VRB5      30.07R
AUGUSTA-DANIEL LGT RAIN  79  73  82 MISG      30.09R
SWAINSBORO     FAIR      82  73  74 CALM      30.10R
VIDALIA          N/A     79  75  89 CALM      30.09R
ALMA           CLOUDY    81  73  76 E5        30.06R
WAYCROSS       LGT RAIN  81  75  83 E7        30.09R
JESUP            N/A     86  77  74 CALM      30.08R HX  97
BRUNSWICK      PTCLDY    86  73  66 SE7       30.08R HX  93
SAINT SIMONS   CLEAR     83  75  77 SE8       30.07R HX  90

$$

SCZ027-028-034-036>038-045-046-048>050-GAZ119-141-020200-
...LAKE AND SUPPLEMENTAL COASTAL OBSERVATIONS...

STATION/POSITION TIME  TEMP    WIND        PRES    WAVE   SWELL
                       AIR SEA DIR/SP/G            HT/PER HT/PER/DIR
                 (UTC) (F)     (DEG/KT/KT) (MB)    (FT/S) (FT/S/D)
UPR LAKE MARION  NOT AVBL
WINYAH BAY       0100   81     200/  3     1018.0S
LAKE MURRAY      0100   81      CALM  /  2 1017.3S
ACE BASIN NERRS  0100   82     160/  2     1018.0S
FORT PULASKI     0100   83     150/  4/  6 1018.8R
SAPELO ISLAND    0100   84     150/  5     1019.0S

$$

ANZ835-935-AMZ111-154-330-350-352-354-374-450-454-472-020200-
...C-MAN AND BUOY OBSERVATIONS...

STATION/POSITION TIME  TEMP    WIND        PRES    WAVE   SWELL
                       AIR SEA DIR/SP/G            HT/PER HT/PER/DIR
                 (UTC) (F)     (DEG/KT/KT) (MB)    (FT/S) (FT/S/D)
FOLLY BEACH CMAN 0100   84     180/ 10/ 12 1019.1R
BUOY 41004       0100   83 83  180/  6/  6 1018.5R   2/ 8   2/ 8
BUOY 41008       0100   83 85  150/ 12/ 14 1018.4R   2/ 9   2/100/ 9
5E ST. MARYS GA  0100      85                N/A     2/ 8
FRYING PAN BUOY  NOT AVBL
BUOY 41025       0100   82     210/ 17/ 19 1018.0R   3/ 8   2/110/ 8
CAPE LOOKOUT NC  0100   81     220/  8/ 10 1018.4R
BUOY 41002       0039   82 84  190/  8/ 10 1020.6R   3/11   3/ 70/11
BUOY 41010       0100   83 85   90/  6/  8 1019.4R   3/ 8   2/ 70/ 8
BUOY 41012       NOT AVBL
ST AUGUSTINE FL  0100   83     150/ 12/ 13 1019.1R
CAPERS NEARSHORE 0000   83     180/  8/ 10   N/A
FRIPP NEARSHORE  NOT AVBL


$$



USA.gov is the U.S. government's official web portal to all federal, state and local government web resources and services.